Regional Weather Roundup
Issued by NWS

Home | Current Version | Previous Version | Text Only | Print | Product List | Glossary On
Versions: 1 2 3 4 5 6 7 8 9 10 11 12 13 14 15 16 17 18 19 20 21 22 23 24 25 26 27 28 29 30 31 32 33 34 35 36 37 38 39 40 41 42 43 44 45 46 47 48 49 50
000
ASUS43 KIND 232309
RWRIN

WEATHER ROUNDUP FOR INDIANA
NATIONAL WEATHER SERVICE INDIANAPOLIS IN
700 PM EDT TUE SEP 23 2014

NOTE: "FAIR" INDICATES FEW OR NO CLOUDS BELOW 12,000 FEET WITH NO
SIGNIFICANT WEATHER AND/OR OBSTRUCTIONS TO VISIBILITY.

* - STATION DOES NOT REPORT WEATHER SUCH AS PRECIPITATION OR FOG.

+ - STATION NOT QUALITY CONTROLLED BY THE NATIONAL WEATHER SERVICE.
    USE DATA WITH CAUTION...ESPECIALLY DEWPOINT AND RELATIVE
    HUMIDITY OBSERVATIONS.

INZ001>003-010>013-019-020-240000-
NORTHWEST INDIANA

CITY           SKY/WX    TMP DP  RH WIND       PRES   REMARKS
GARY /AIRPORT/ PTCLDY    68  50  52 NE6       30.29S
KNOX *+        CLEAR     70  49  48 E5        30.28S
LA PORTE +     CLEAR     67  50  55 NE6       30.30S
MICHIGAN CITY+ CLEAR     64  46  52 NE3       30.30S
MONTICELLO +   CLEAR     69  50  50 E3        30.27S
RENSSELAER +   CLEAR     70  46  43 E5        30.28S
VALPARAISO     CLEAR     69  52  54 NE3       30.29S

$$

LMZ046-743>745-240000-
SOUTHERN LAKE MICHIGAN

STATION/POSITION TIME  TEMP WIND        PRES
                       AIR  DIR/SP/G
                 (UTC) (F)  (DEG/KT/KT) (MB)

$$

INZ004-005-014>016-021>024-240000-
NORTH CENTRAL INDIANA

CITY           SKY/WX    TMP DP  RH WIND       PRES   REMARKS
ELKHART        CLEAR     68  48  49 CALM      30.30S
GOSHEN         CLEAR     67  52  58 E5        30.30S
LOGANSPORT +   CLEAR     68  46  45 E3        30.29F
PERU/GRISSOM   CLEAR     67  53  60 NE6       30.29S
ROCHESTER +    CLEAR     70  52  52 E3        30.30S
SOUTH BEND     CLEAR     69  52  54 N7        30.30S
WARSAW +       CLEAR     68  50  52 CALM      30.30S

$$

INZ006>009-017-018-025>027-240000-
NORTHEAST INDIANA

CITY           SKY/WX    TMP DP  RH WIND       PRES   REMARKS
ANGOLA *+      CLEAR     70  52  52 CALM      30.31S
AUBURN +       CLEAR     66  50  55 CALM      30.31S
FORT WAYNE     CLEAR     68  51  54 NE3       30.31S
HUNTINGTON +   CLEAR     66  51  57 CALM      30.30S

$$

INZ028-029-035-036-043>045-051>053-240000-
WEST CENTRAL INDIANA

CITY           SKY/WX    TMP DP  RH WIND       PRES   REMARKS
GREENCASTLE +  CLEAR     68  48  49 E3        30.28R
LAFAYETTE      CLEAR     67  49  52 E7        30.27S
TERRE HAUTE    CLEAR     69  49  48 E3        30.26S

$$

INZ030>032-037>040-046>048-054>057-064-065-240000-
CENTRAL INDIANA

CITY           SKY/WX    TMP DP  RH WIND       PRES   REMARKS
CP ATTERBURY + CLEAR     68  46  45 E5        30.27S
COLUMBUS       CLEAR     70  45  40 CALM      30.27F
FRANKFORT +    CLEAR     70  47  44 NE7       30.29S
INDIANAPOLIS   PTCLDY    69  47  45 NE7       30.27S
-EAGLE CREEK   CLEAR     70  45  40 E5        30.27F
KOKOMO *+      CLEAR     68  48  49 E6        30.29S
MARION +       CLEAR     68  47  46 E5        30.30F
MT COMFORT *+  CLEAR     68  39  34 NE5       30.29S
SHELBYVILLE    CLEAR     72  46  39 E5        30.27F
ZIONSVILLE +   CLEAR     69  47  44 E3        30.29S

$$

INZ033-034-041-042-049-050-058-059-240000-
EAST CENTRAL INDIANA

CITY           SKY/WX    TMP DP  RH WIND       PRES   REMARKS
MUNCIE         CLEAR     68  46  45 NE5       30.29F

$$

INZ060-061-067>069-081>083-085>088-240000-
SOUTHWEST INDIANA

CITY           SKY/WX    TMP DP  RH WIND       PRES   REMARKS
EVANSVILLE     CLEAR     72  47  40 NE8       30.24S
WASHINGTON +   CLEAR     70  49  46 E7        30.25S

$$

INZ062-063-066-070>080-084-089>092-240000-
SOUTH CENTRAL AND SOUTHEAST INDIANA

CITY           SKY/WX    TMP DP  RH WIND       PRES   REMARKS
BLOOMINGTON    CLEAR     68  47  46 E7        30.27S
SEYMOUR +      CLEAR     72  46  40 E5        30.27

$$



USA.gov is the U.S. government's official web portal to all federal, state and local government web resources and services.